Location: Shepherdstown, WV
(39.4326°N, 77.8042°W)
Time: 04:34:26
(UTC-04:00)

SR - Pass Details

Date: 08 August 2021
Orbit: 581 x 874 km, 66.7° (Epoch: 24 September)

Event Time Altitude Azimuth Distance (km) Brightness Sun altitude
Rises 03:58:10 0° 167° (SSE) 3,442 - -23.0°
Exits shadow 04:01:01 - 153° (SSE) 2,573 ? -22.6°
Reaches altitude 10° 04:01:19 10° 151° (SSE) 2,494 ? -22.6°
Maximum altitude 04:05:22 20° 107° (ESE) 1,861 ? -22.0°
Drops below altitude 10° 04:09:19 10° 62° (ENE) 2,420 ? -21.5°
Sets 04:12:18 0° 46° (NE) 3,308 ? -21.1°
